| time (UTC) | temp F | wind direction | speed MPH | gust MPH | rain 1hr in | rain 24hr in | rain mn in | humidity % | barometer mb |
| 20260504035739 | 79 | 257 | 1.0 | 3.0 | 0.00 | 0.00 | 0.00 | 46 | 1015.2 |
| 20260504035238 | 79 | 256 | 1.0 | 6.0 | 0.00 | 0.00 | 0.00 | 46 | 1015.2 |
| 20260504034737 | 79 | 256 | 1.0 | 6.0 | 0.00 | 0.00 | 0.00 | 46 | 1015.3 |
| 20260504034237 | 80 | 266 | 1.0 | 4.0 | 0.00 | 0.00 | 0.00 | 46 | 1015.2 |
| 20260504033737 | 80 | 273 | 1.0 | 3.0 | 0.00 | 0.00 | 0.00 | 46 | 1015.2 |
| 20260504033234 | 81 | 275 | 1.0 | 3.0 | 0.00 | 0.00 | 0.00 | 46 | 1015.2 |
| 20260504032733 | 82 | 274 | 1.0 | 3.0 | 0.00 | 0.00 | 0.00 | 45 | 1015.1 |
| 20260504032231 | 82 | 290 | 1.0 | 3.0 | 0.00 | 0.00 | 0.00 | 45 | 1015.1 |
| 20260504031732 | 83 | 265 | 2.0 | 4.0 | 0.00 | 0.00 | 0.00 | 44 | 1015.1 |
| 20260504031232 | 84 | 266 | 2.0 | 4.0 | 0.00 | 0.00 | 0.00 | 43 | 1015.0 |
| 20260504030731 | 85 | 265 | 1.0 | 4.0 | 0.00 | 0.00 | 0.00 | 42 | 1015.0 |
| 20260504030228 | 86 | 276 | 2.0 | 5.0 | 0.00 | 0.00 | 0.00 | 41 | 1015.0 |
| 20260504025727 | 86 | 277 | 2.0 | 5.0 | 0.00 | 0.00 | 0.00 | 39 | 1015.0 |
| 20260504025229 | 87 | 283 | 2.0 | 4.0 | 0.00 | 0.00 | 0.00 | 38 | 1015.0 |
| 20260504024727 | 88 | 286 | 1.0 | 3.0 | 0.00 | 0.00 | 0.00 | 37 | 1014.8 |
| 20260504024225 | 88 | 303 | 0.0 | 3.0 | 0.00 | 0.00 | 0.00 | 36 | 1014.9 |
| 20260504023725 | 89 | 304 | 1.0 | 3.0 | 0.00 | 0.00 | 0.00 | 36 | 1014.7 |
| 20260504023220 | 89 | 314 | 1.0 | 4.0 | 0.00 | 0.00 | 0.00 | 35 | 1014.6 |
| 20260504022719 | 89 | 303 | 1.0 | 4.0 | 0.00 | 0.00 | 0.00 | 35 | 1014.6 |
| 20260504022219 | 89 | 292 | 2.0 | 8.0 | 0.00 | 0.00 | 0.00 | 35 | 1014.7 |
| 20260504021719 | 89 | 315 | 3.0 | 8.0 | 0.00 | 0.00 | 0.00 | 34 | 1014.7 |
| 20260504021219 | 89 | 325 | 3.0 | 7.0 | 0.00 | 0.00 | 0.00 | 34 | 1014.8 |
| 20260504020720 | 89 | 286 | 3.0 | 7.0 | 0.00 | 0.00 | 0.00 | 34 | 1014.7 |
| 20260504020214 | 89 | 275 | 4.0 | 10.0 | 0.00 | 0.00 | 0.00 | 35 | 1014.9 |
| 20260504015713 | 89 | 285 | 4.0 | 10.0 | 0.00 | 0.00 | 0.00 | 34 | 1015.0 |
| 20260504015213 | 90 | 290 | 4.0 | 12.0 | 0.00 | 0.00 | 0.00 | 36 | 1014.9 |
| 20260504014713 | 90 | 28 | 4.0 | 12.0 | 0.00 | 0.00 | 0.00 | 35 | 1014.9 |
| 20260504014213 | 90 | 315 | 4.0 | 9.0 | 0.00 | 0.00 | 0.00 | 35 | 1014.8 |
| 20260504013713 | 90 | 286 | 3.0 | 8.0 | 0.00 | 0.00 | 0.00 | 35 | 1015.0 |
| 20260504013208 | 91 | 281 | 3.0 | 7.0 | 0.00 | 0.00 | 0.00 | 35 | 1015.0 |
| 20260504012707 | 91 | 297 | 3.0 | 10.0 | 0.00 | 0.00 | 0.00 | 34 | 1015.0 |
| 20260504012207 | 91 | 279 | 3.0 | 10.0 | 0.00 | 0.00 | 0.00 | 34 | 1015.0 |
| 20260504011707 | 92 | 342 | 3.0 | 9.0 | 0.00 | 0.00 | 0.00 | 34 | 1015.2 |
| 20260504011207 | 92 | 308 | 3.0 | 9.0 | 0.00 | 0.00 | 0.00 | 34 | 1015.2 |
| 20260504010708 | 92 | 325 | 3.0 | 9.0 | 0.00 | 0.00 | 0.00 | 34 | 1015.2 |
| 20260504010202 | 92 | 355 | 3.0 | 9.0 | 0.00 | 0.00 | 0.00 | 34 | 1015.2 |
| 20260504005701 | 92 | 17 | 3.0 | 7.0 | 0.00 | 0.00 | 0.00 | 34 | 1015.2 |
| 20260504005201 | 92 | 287 | 3.0 | 8.0 | 0.00 | 0.00 | 0.00 | 35 | 1015.2 |
| 20260504004702 | 92 | 279 | 2.0 | 8.0 | 0.00 | 0.00 | 0.00 | 34 | 1015.2 |
| 20260504004201 | 92 | 25 | 2.0 | 7.0 | 0.00 | 0.00 | 0.00 | 35 | 1015.5 |
| 20260504003701 | 92 | 275 | 3.0 | 8.0 | 0.00 | 0.00 | 0.00 | 35 | 1015.3 |
| 20260504003158 | 92 | 5 | 4.0 | 10.0 | 0.00 | 0.00 | 0.00 | 34 | 1015.4 |
| 20260504002657 | 92 | 36 | 3.0 | 10.0 | 0.00 | 0.00 | 0.00 | 35 | 1015.4 |
| 20260504002158 | 92 | 5 | 4.0 | 10.0 | 0.00 | 0.00 | 0.00 | 36 | 1015.4 |
| 20260504001657 | 92 | 296 | 4.0 | 10.0 | 0.00 | 0.00 | 0.00 | 35 | 1015.4 |
| 20260504001154 | 92 | 312 | 4.0 | 8.0 | 0.00 | 0.00 | 0.00 | 36 | 1015.6 |
| 20260504000656 | 92 | 271 | 4.0 | 8.0 | 0.00 | 0.00 | 0.00 | 35 | 1015.5 |
| 20260504000153 | 92 | 298 | 4.0 | 10.0 | 0.00 | 0.00 | 0.00 | 36 | 1015.5 |
| 20260503235653 | 92 | 10 | 3.0 | 10.0 | 0.00 | 0.00 | 0.00 | 35 | 1015.6 |
| 20260503235154 | 92 | 355 | 3.0 | 11.0 | 0.00 | 0.00 | 0.00 | 35 | 1015.5 |
| 20260503234651 | 92 | 33 | 3.0 | 11.0 | 0.00 | 0.00 | 0.00 | 34 | 1015.5 |
| 20260503234149 | 92 | 0 | 3.0 | 8.0 | 0.00 | 0.00 | 0.00 | 36 | 1015.5 |
| 20260503233650 | 92 | 304 | 3.0 | 9.0 | 0.00 | 0.00 | 0.00 | 36 | 1015.7 |
| 20260503233144 | 92 | 355 | 2.0 | 9.0 | 0.00 | 0.00 | 0.00 | 37 | 1015.6 |
| 20260503232642 | 92 | 24 | 2.0 | 7.0 | 0.00 | 0.00 | 0.00 | 35 | 1015.7 |
| 20260503232138 | 92 | 5 | 2.0 | 8.0 | 0.00 | 0.00 | 0.00 | 36 | 1015.9 |
| 20260503231637 | 92 | 5 | 3.0 | 8.0 | 0.00 | 0.00 | 0.00 | 37 | 1015.9 |
| 20260503231138 | 92 | 350 | 3.0 | 9.0 | 0.00 | 0.00 | 0.00 | 37 | 1015.9 |
| 20260503230632 | 92 | 254 | 3.0 | 9.0 | 0.00 | 0.00 | 0.00 | 38 | 1015.9 |
| 20260503230131 | 92 | 300 | 2.0 | 9.0 | 0.00 | 0.00 | 0.00 | 37 | 1016.1 |
| 20260503225631 | 91 | 66 | 2.0 | 9.0 | 0.00 | 0.00 | 0.00 | 39 | 1016.2 |
| 20260503225131 | 91 | 302 | 2.0 | 7.0 | 0.00 | 0.00 | 0.00 | 38 | 1016.3 |
| 20260503224631 | 91 | 22 | 3.0 | 9.0 | 0.00 | 0.00 | 0.00 | 39 | 1016.4 |
| 20260503224131 | 91 | 109 | 3.0 | 9.0 | 0.00 | 0.00 | 0.00 | 38 | 1016.6 |
| 20260503223626 | 90 | 340 | 3.0 | 8.0 | 0.00 | 0.00 | 0.00 | 40 | 1016.6 |
| 20260503223124 | 90 | 336 | 3.0 | 8.0 | 0.00 | 0.00 | 0.00 | 41 | 1016.7 |
| 20260503222625 | 90 | 355 | 3.0 | 7.0 | 0.00 | 0.00 | 0.00 | 42 | 1016.8 |
| 20260503222125 | 89 | 257 | 3.0 | 8.0 | 0.00 | 0.00 | 0.00 | 43 | 1016.8 |
| 20260503221625 | 90 | 285 | 3.0 | 9.0 | 0.00 | 0.00 | 0.00 | 43 | 1016.9 |
| 20260503221125 | 90 | 350 | 2.0 | 7.0 | 0.00 | 0.00 | 0.00 | 44 | 1016.9 |
| 20260503220622 | 89 | 29 | 2.0 | 7.0 | 0.00 | 0.00 | 0.00 | 46 | 1016.9 |
| 20260503220120 | 89 | 304 | 2.0 | 5.0 | 0.00 | 0.00 | 0.00 | 47 | 1017.0 |
| 20260503215619 | 89 | 92 | 2.0 | 8.0 | 0.00 | 0.00 | 0.00 | 44 | 1016.9 |
| 20260503215119 | 88 | 9 | 3.0 | 9.0 | 0.00 | 0.00 | 0.00 | 44 | 1017.1 |
| 20260503214619 | 88 | 342 | 3.0 | 9.0 | 0.00 | 0.00 | 0.00 | 44 | 1017.2 |
| 20260503214120 | 87 | 40 | 3.0 | 7.0 | 0.00 | 0.00 | 0.00 | 46 | 1017.3 |
| 20260503213614 | 87 | 19 | 4.0 | 12.0 | 0.00 | 0.00 | 0.00 | 47 | 1017.5 |
| 20260503213114 | 87 | 284 | 3.0 | 12.0 | 0.00 | 0.00 | 0.00 | 47 | 1017.6 |
| 20260503212613 | 87 | 46 | 3.0 | 7.0 | 0.00 | 0.00 | 0.00 | 48 | 1017.7 |
| 20260503212113 | 87 | 67 | 3.0 | 8.0 | 0.00 | 0.00 | 0.00 | 47 | 1017.7 |
| 20260503211613 | 86 | 76 | 3.0 | 8.0 | 0.00 | 0.00 | 0.00 | 51 | 1017.6 |
| 20260503211112 | 86 | 327 | 3.0 | 8.0 | 0.00 | 0.00 | 0.00 | 50 | 1017.8 |
| 20260503210610 | 85 | 5 | 3.0 | 8.0 | 0.00 | 0.00 | 0.00 | 49 | 1017.9 |
| 20260503210112 | 85 | 44 | 3.0 | 8.0 | 0.00 | 0.00 | 0.00 | 53 | 1017.9 |
| 20260503205609 | 85 | 34 | 3.0 | 8.0 | 0.00 | 0.00 | 0.00 | 52 | 1018.0 |
| 20260503205110 | 85 | 283 | 3.0 | 8.0 | 0.00 | 0.00 | 0.00 | 52 | 1018.0 |
| 20260503204609 | 84 | 17 | 3.0 | 9.0 | 0.00 | 0.00 | 0.00 | 50 | 1018.2 |
| 20260503204108 | 84 | 9 | 2.0 | 9.0 | 0.00 | 0.00 | 0.00 | 52 | 1018.1 |
| 20260503203610 | 84 | 331 | 2.0 | 5.0 | 0.00 | 0.00 | 0.00 | 54 | 1018.2 |
| 20260503203104 | 83 | 48 | 2.0 | 5.0 | 0.00 | 0.00 | 0.00 | 54 | 1018.3 |
| 20260503202606 | 83 | 14 | 3.0 | 8.0 | 0.00 | 0.00 | 0.00 | 55 | 1018.4 |
| 20260503202104 | 82 | 119 | 3.0 | 8.0 | 0.00 | 0.00 | 0.00 | 53 | 1018.4 |
| 20260503201605 | 82 | 47 | 3.0 | 8.0 | 0.00 | 0.00 | 0.00 | 56 | 1018.4 |
| 20260503201104 | 82 | 290 | 3.0 | 8.0 | 0.00 | 0.00 | 0.00 | 54 | 1018.5 |
| 20260503200606 | 82 | 323 | 2.0 | 7.0 | 0.00 | 0.00 | 0.00 | 55 | 1018.7 |
| 20260503200100 | 81 | 347 | 2.0 | 7.0 | 0.00 | 0.00 | 0.00 | 56 | 1018.7 |
| 20260503195602 | 81 | 20 | 2.0 | 7.0 | 0.00 | 0.00 | 0.00 | 58 | 1018.9 |
| 20260503195102 | 80 | 74 | 2.0 | 7.0 | 0.00 | 0.00 | 0.00 | 58 | 1018.9 |
| 20260503194601 | 80 | 292 | 2.0 | 9.0 | 0.00 | 0.00 | 0.00 | 58 | 1019.0 |
| 20260503194101 | 79 | 291 | 3.0 | 9.0 | 0.00 | 0.00 | 0.00 | 58 | 1019.0 |
| 20260503193602 | 79 | 259 | 2.0 | 7.0 | 0.00 | 0.00 | 0.00 | 59 | 1019.2 |
| 20260503193056 | 79 | 275 | 2.0 | 7.0 | 0.00 | 0.00 | 0.00 | 60 | 1019.3 |
| 20260503192602 | 78 | 314 | 3.0 | 6.0 | 0.00 | 0.00 | 0.00 | 62 | 1019.3 |
| 20260503192058 | 77 | 13 | 2.0 | 6.0 | 0.00 | 0.00 | 0.00 | 63 | 1019.3 |
| 20260503191557 | 77 | 263 | 3.0 | 8.0 | 0.00 | 0.00 | 0.00 | 62 | 1019.3 |
| 20260503191057 | 77 | 288 | 2.0 | 8.0 | 0.00 | 0.00 | 0.00 | 63 | 1019.3 |
| 20260503190558 | 76 | 317 | 2.0 | 5.0 | 0.00 | 0.00 | 0.00 | 65 | 1019.4 |
| 20260503190056 | 76 | 5 | 3.0 | 7.0 | 0.00 | 0.00 | 0.00 | 65 | 1019.3 |
| 20260503185557 | 76 | 275 | 3.0 | 7.0 | 0.00 | 0.00 | 0.00 | 64 | 1019.4 |
| 20260503185056 | 76 | 286 | 2.0 | 4.0 | 0.00 | 0.00 | 0.00 | 64 | 1019.5 |
| 20260503184556 | 76 | 281 | 2.0 | 8.0 | 0.00 | 0.00 | 0.00 | 64 | 1019.5 |
| 20260503184056 | 76 | 259 | 2.0 | 8.0 | 0.00 | 0.00 | 0.00 | 64 | 1019.5 |
| 20260503183554 | 75 | 34 | 1.0 | 4.0 | 0.00 | 0.00 | 0.00 | 66 | 1019.5 |
| 20260503183056 | 75 | 230 | 1.0 | 3.0 | 0.00 | 0.00 | 0.00 | 66 | 1019.6 |
| 20260503182553 | 75 | 304 | 2.0 | 5.0 | 0.00 | 0.00 | 0.00 | 65 | 1019.6 |
| 20260503182052 | 75 | 57 | 2.0 | 5.0 | 0.00 | 0.00 | 0.00 | 66 | 1019.7 |
| 20260503181552 | 74 | 350 | 1.0 | 4.0 | 0.00 | 0.00 | 0.00 | 67 | 1019.6 |
| 20260503181053 | 74 | 31 | 1.0 | 5.0 | 0.00 | 0.00 | 0.00 | 68 | 1019.7 |
| 20260503180552 | 73 | 342 | 1.0 | 5.0 | 0.00 | 0.00 | 0.00 | 68 | 1019.7 |
| 20260503180052 | 73 | 53 | 2.0 | 5.0 | 0.00 | 0.00 | 0.00 | 69 | 1019.9 |
| 20260503175549 | 72 | 63 | 2.0 | 5.0 | 0.00 | 0.00 | 0.00 | 70 | 1019.9 |
| 20260503175046 | 72 | 57 | 2.0 | 5.0 | 0.00 | 0.00 | 0.00 | 69 | 1019.9 |
| 20260503174546 | 71 | 17 | 2.0 | 6.0 | 0.00 | 0.00 | 0.00 | 70 | 1020.0 |
| 20260503174046 | 71 | 306 | 2.0 | 6.0 | 0.00 | 0.00 | 0.00 | 70 | 1020.0 |
| 20260503173546 | 71 | 22 | 3.0 | 5.0 | 0.00 | 0.00 | 0.00 | 70 | 1020.0 |
| 20260503173042 | 70 | 340 | 3.0 | 6.0 | 0.00 | 0.00 | 0.00 | 72 | 1020.1 |
| 20260503172540 | 70 | 0 | 3.0 | 6.0 | 0.00 | 0.00 | 0.00 | 72 | 1020.2 |
| 20260503172040 | 70 | 338 | 3.0 | 5.0 | 0.00 | 0.00 | 0.00 | 71 | 1020.2 |
| 20260503171540 | 70 | 343 | 2.0 | 6.0 | 0.00 | 0.00 | 0.00 | 72 | 1020.1 |
| 20260503171040 | 70 | 335 | 2.0 | 6.0 | 0.00 | 0.00 | 0.00 | 72 | 1020.0 |
| 20260503170541 | 69 | 311 | 2.0 | 5.0 | 0.00 | 0.00 | 0.00 | 73 | 1020.0 |
| 20260503150517 | 56 | 355 | 0.0 | 1.0 | 0.00 | 0.00 | 0.00 | 91 | 1020.4 |
| 20260503130952 | 49 | 355 | 0.0 | 0.0 | 0.00 | 0.00 | 0.00 | 93 | 1020.0 |
| 20260503130453 | 49 | 355 | 0.0 | 0.0 | 0.00 | 0.00 | 0.00 | 92 | 1020.1 |
| 20260503110427 | 51 | 0 | 0.0 | 0.0 | 0.00 | 0.00 | 0.00 | 92 | 1020.3 |
| 20260503090408 | 54 | 355 | 0.0 | 1.0 | 0.00 | 0.00 | 0.00 | 91 | 1020.5 |
| 20260503081359 | 55 | 355 | 0.0 | 0.0 | 0.00 | 0.00 | 0.00 | 90 | 1020.7 |
| 20260503080901 | 55 | 355 | 0.0 | 0.0 | 0.00 | 0.00 | 0.00 | 90 | 1020.7 |
| 20260503080400 | 55 | 355 | 0.0 | 0.0 | 0.00 | 0.00 | 0.00 | 90 | 1020.7 |
| 20260503072845 | 56 | 0 | 0.0 | 0.0 | 0.00 | 0.00 | 0.00 | 90 | 1021.0 |
| 20260503072345 | 56 | 355 | 0.0 | 0.0 | 0.00 | 0.00 | 0.00 | 90 | 1021.1 |
| 20260503071841 | 57 | 355 | 0.0 | 0.0 | 0.00 | 0.00 | 0.00 | 89 | 1021.1 |
| 20260503071342 | 57 | 355 | 0.0 | 0.0 | 0.00 | 0.00 | 0.00 | 89 | 1021.2 |
| 20260503070840 | 57 | 355 | 0.0 | 0.0 | 0.00 | 0.00 | 0.00 | 89 | 1021.2 |
| 20260503070338 | 57 | 355 | 0.0 | 0.0 | 0.00 | 0.00 | 0.00 | 89 | 1021.2 |
| 20260503060329 | 60 | 355 | 0.0 | 2.0 | 0.00 | 0.00 | 0.00 | 87 | 1021.1 |
| 20260503054829 | 60 | 351 | 1.0 | 3.0 | 0.00 | 0.00 | 0.00 | 87 | 1021.1 |
| 20260503054329 | 60 | 355 | 1.0 | 3.0 | 0.00 | 0.00 | 0.00 | 87 | 1021.0 |
| 20260503053830 | 60 | 355 | 0.0 | 3.0 | 0.00 | 0.00 | 0.00 | 86 | 1020.8 |
| 20260503053323 | 60 | 355 | 0.0 | 1.0 | 0.00 | 0.00 | 0.00 | 86 | 1021.1 |
| 20260503052822 | 61 | 355 | 0.0 | 1.0 | 0.00 | 0.00 | 0.00 | 85 | 1021.0 |
| 20260503052319 | 61 | 0 | 0.0 | 2.0 | 0.00 | 0.00 | 0.00 | 85 | 1021.0 |
| 20260503051817 | 61 | 355 | 0.0 | 2.0 | 0.00 | 0.00 | 0.00 | 85 | 1021.0 |
| 20260503051318 | 61 | 0 | 0.0 | 2.0 | 0.00 | 0.00 | 0.00 | 85 | 1021.0 |
| 20260503050815 | 61 | 0 | 0.0 | 2.0 | 0.00 | 0.00 | 0.00 | 85 | 1020.9 |
| 20260503050313 | 62 | 0 | 0.0 | 2.0 | 0.00 | 0.00 | 0.00 | 84 | 1020.9 |
| 20260503045815 | 62 | 355 | 0.0 | 2.0 | 0.00 | 0.00 | 0.00 | 84 | 1020.9 |
| 20260503045314 | 62 | 0 | 0.0 | 0.0 | 0.00 | 0.00 | 0.00 | 84 | 1021.1 |
| 20260503044811 | 62 | 0 | 0.0 | 2.0 | 0.00 | 0.00 | 0.00 | 84 | 1021.1 |
| 20260503044311 | 62 | 0 | 0.0 | 2.0 | 0.00 | 0.00 | 0.00 | 83 | 1021.1 |
| 20260503043805 | 62 | 355 | 0.0 | 2.0 | 0.00 | 0.00 | 0.00 | 83 | 1021.1 |
| 20260503043304 | 63 | 355 | 0.0 | 2.0 | 0.00 | 0.00 | 0.00 | 83 | 1021.0 |
| 20260503042801 | 63 | 355 | 0.0 | 2.0 | 0.00 | 0.00 | 0.00 | 83 | 1021.0 |
| 20260503042300 | 63 | 355 | 0.0 | 2.0 | 0.00 | 0.00 | 0.00 | 83 | 1021.0 |
| 20260503041800 | 63 | 355 | 1.0 | 4.0 | 0.00 | 0.00 | 0.00 | 82 | 1020.8 |
| 20260503041258 | 63 | 0 | 1.0 | 4.0 | 0.00 | 0.00 | 0.00 | 82 | 1020.8 |
| 20260503040755 | 63 | 344 | 0.0 | 1.0 | 0.00 | 0.00 | 0.00 | 82 | 1020.7 |
| 20260503040256 | 64 | 344 | 0.0 | 1.0 | 0.00 | 0.00 | 0.00 | 81 | 1020.8 |
| 20260503035755 | 64 | 344 | 0.0 | 2.0 | 0.00 | 0.00 | 0.00 | 80 | 1020.9 |